owner,sensor,date,latitude,longitude,air_temperature,qcFlag 
COMPS,ioos:station:USF.COMPS:ARP:1,2010-09-01T00:00:00Z,28.4330,-82.6670,29.3,1111122 
COMPS,ioos:station:USF.COMPS:ARP:1,2010-09-01T00:06:00Z,28.4330,-82.6670,28.99,1111122 
COMPS,ioos:station:USF.COMPS:ARP:1,2010-09-01T00:12:00Z,28.4330,-82.6670,28.86,1111122 
COMPS,ioos:station:USF.COMPS:ARP:1,2010-09-01T00:18:00Z,28.4330,-82.6670,28.78,1111122 
COMPS,ioos:station:USF.COMPS:ARP:1,2010-09-01T00:24:00Z,28.4330,-82.6670,28.71,1111122 
COMPS,ioos:station:USF.COMPS:ARP:1,2010-09-01T00:30:00Z,28.4330,-82.6670,28.61,1111122 
COMPS,ioos:station:USF.COMPS:ARP:1,2010-09-01T00:36:00Z,28.4330,-82.6670,28.52,1111122 
COMPS,ioos:station:USF.COMPS:ARP:1,2010-09-01T00:42:00Z,28.4330,-82.6670,28.42,1111122 
COMPS,ioos:station:USF.COMPS:ARP:1,2010-09-01T00:48:00Z,28.4330,-82.6670,28.27,1111122 
COMPS,ioos:station:USF.COMPS:ARP:1,2010-09-01T00:54:00Z,28.4330,-82.6670,28.34,1111122 
COMPS,ioos:station:USF.COMPS:ARP:1,2010-09-01T01:00:00Z,28.4330,-82.6670,28.3,1111122 
COMPS,ioos:station:USF.COMPS:ARP:1,2010-09-01T01:06:00Z,28.4330,-82.6670,28.12,1111122 
COMPS,ioos:station:USF.COMPS:ARP:1,2010-09-01T01:12:00Z,28.4330,-82.6670,28.05,1111122 
COMPS,ioos:station:USF.COMPS:ARP:1,2010-09-01T01:18:00Z,28.4330,-82.6670,27.95,1111122 
COMPS,ioos:station:USF.COMPS:ARP:1,2010-09-01T01:24:00Z,28.4330,-82.6670,27.85,1111122 
COMPS,ioos:station:USF.COMPS:ARP:1,2010-09-01T01:30:00Z,28.4330,-82.6670,27.72,1111122 
COMPS,ioos:station:USF.COMPS:ARP:1,2010-09-01T01:36:00Z,28.4330,-82.6670,27.72,1111122 
COMPS,ioos:station:USF.COMPS:ARP:1,2010-09-01T01:42:00Z,28.4330,-82.6670,27.63,1111122 
COMPS,ioos:station:USF.COMPS:ARP:1,2010-09-01T01:48:00Z,28.4330,-82.6670,27.56,1111122 
COMPS,ioos:station:USF.COMPS:ARP:1,2010-09-01T01:54:00Z,28.4330,-82.6670,27.53,1111122 
COMPS,ioos:station:USF.COMPS:ARP:1,2010-09-01T02:00:00Z,28.4330,-82.6670,27.5,1111122 
COMPS,ioos:station:USF.COMPS:ARP:1,2010-09-01T13:00:00Z,28.4330,-82.6670,25.21,1111122 
COMPS,ioos:station:USF.COMPS:ARP:1,2010-09-01T13:06:00Z,28.4330,-82.6670,25.34,1111122 
COMPS,ioos:station:USF.COMPS:ARP:1,2010-09-01T13:12:00Z,28.4330,-82.6670,25.54,1111122 
COMPS,ioos:station:USF.COMPS:ARP:1,2010-09-01T13:18:00Z,28.4330,-82.6670,25.71,1111122 
COMPS,ioos:station:USF.COMPS:ARP:1,2010-09-01T13:24:00Z,28.4330,-82.6670,25.85,1111122 
COMPS,ioos:station:USF.COMPS:ARP:1,2010-09-01T13:30:00Z,28.4330,-82.6670,26.1,1111122 
COMPS,ioos:station:USF.COMPS:ARP:1,2010-09-01T13:36:00Z,28.4330,-82.6670,26.4,1111122 
COMPS,ioos:station:USF.COMPS:ARP:1,2010-09-01T13:42:00Z,28.4330,-82.6670,26.49,1111122 
COMPS,ioos:station:USF.COMPS:ARP:1,2010-09-01T13:48:00Z,28.4330,-82.6670,26.7,1111122 
COMPS,ioos:station:USF.COMPS:ARP:1,2010-09-01T13:54:00Z,28.4330,-82.6670,27.17,1111122 
COMPS,ioos:station:USF.COMPS:ARP:1,2010-09-01T14:00:00Z,28.4330,-82.6670,27.33,1111122 
COMPS,ioos:station:USF.COMPS:ARP:1,2010-09-01T14:06:00Z,28.4330,-82.6670,27.44,1111122 
COMPS,ioos:station:USF.COMPS:ARP:1,2010-09-01T14:12:00Z,28.4330,-82.6670,27.55,1111122 
COMPS,ioos:station:USF.COMPS:ARP:1,2010-09-01T14:18:00Z,28.4330,-82.6670,27.65,1111122 
COMPS,ioos:station:USF.COMPS:ARP:1,2010-09-01T14:24:00Z,28.4330,-82.6670,27.5,1111122 
COMPS,ioos:station:USF.COMPS:ARP:1,2010-09-01T14:30:00Z,28.4330,-82.6670,27.47,1111122 
COMPS,ioos:station:USF.COMPS:ARP:1,2010-09-01T14:36:00Z,28.4330,-82.6670,27.48,1111122 
COMPS,ioos:station:USF.COMPS:ARP:1,2010-09-01T14:42:00Z,28.4330,-82.6670,27.6,1111122 
COMPS,ioos:station:USF.COMPS:ARP:1,2010-09-01T14:48:00Z,28.4330,-82.6670,27.63,1111122 
COMPS,ioos:station:USF.COMPS:ARP:1,2010-09-01T14:54:00Z,28.4330,-82.6670,27.9,1111122 
COMPS,ioos:station:USF.COMPS:ARP:1,2010-09-01T15:00:00Z,28.4330,-82.6670,27.9,1111122 
COMPS,ioos:station:USF.COMPS:ARP:1,2010-09-01T15:06:00Z,28.4330,-82.6670,28.14,1111122 
COMPS,ioos:station:USF.COMPS:ARP:1,2010-09-01T15:12:00Z,28.4330,-82.6670,28.38,1111122 
COMPS,ioos:station:USF.COMPS:ARP:1,2010-09-01T15:18:00Z,28.4330,-82.6670,28.65,1111122 
COMPS,ioos:station:USF.COMPS:ARP:1,2010-09-01T15:24:00Z,28.4330,-82.6670,28.44,1111122 
COMPS,ioos:station:USF.COMPS:ARP:1,2010-09-01T15:30:00Z,28.4330,-82.6670,28.34,1111122 
COMPS,ioos:station:USF.COMPS:ARP:1,2010-09-01T15:36:00Z,28.4330,-82.6670,28.53,1111122 
COMPS,ioos:station:USF.COMPS:ARP:1,2010-09-01T15:42:00Z,28.4330,-82.6670,28.94,1111122 
COMPS,ioos:station:USF.COMPS:ARP:1,2010-09-01T15:48:00Z,28.4330,-82.6670,28.96,1111122 
COMPS,ioos:station:USF.COMPS:ARP:1,2010-09-01T15:54:00Z,28.4330,-82.6670,29.01,1111122 
COMPS,ioos:station:USF.COMPS:ARP:1,2010-09-01T16:00:00Z,28.4330,-82.6670,29.0,1111122 
COMPS,ioos:station:USF.COMPS:ARP:1,2010-09-01T16:06:00Z,28.4330,-82.6670,29.29,1111122 
COMPS,ioos:station:USF.COMPS:ARP:1,2010-09-01T16:12:00Z,28.4330,-82.6670,29.19,1111122 
COMPS,ioos:station:USF.COMPS:ARP:1,2010-09-01T16:18:00Z,28.4330,-82.6670,29.33,1111122 
COMPS,ioos:station:USF.COMPS:ARP:1,2010-09-01T16:24:00Z,28.4330,-82.6670,29.4,1111122 
COMPS,ioos:station:USF.COMPS:ARP:1,2010-09-01T16:30:00Z,28.4330,-82.6670,29.68,1111122 
COMPS,ioos:station:USF.COMPS:ARP:1,2010-09-01T16:36:00Z,28.4330,-82.6670,29.58,1111122 
COMPS,ioos:station:USF.COMPS:ARP:1,2010-09-01T16:42:00Z,28.4330,-82.6670,29.7,1111122 
COMPS,ioos:station:USF.COMPS:ARP:1,2010-09-01T16:48:00Z,28.4330,-82.6670,29.87,1111122 
COMPS,ioos:station:USF.COMPS:ARP:1,2010-09-01T16:54:00Z,28.4330,-82.6670,30.0,1111122 
COMPS,ioos:station:USF.COMPS:ARP:1,2010-09-01T17:00:00Z,28.4330,-82.6670,29.79,1111122 
COMPS,ioos:station:USF.COMPS:ARP:1,2010-09-01T17:06:00Z,28.4330,-82.6670,29.74,1111122 
COMPS,ioos:station:USF.COMPS:ARP:1,2010-09-01T17:12:00Z,28.4330,-82.6670,30.07,1111122 
COMPS,ioos:station:USF.COMPS:ARP:1,2010-09-01T17:18:00Z,28.4330,-82.6670,30.14,1111122 
COMPS,ioos:station:USF.COMPS:ARP:1,2010-09-01T17:24:00Z,28.4330,-82.6670,30.15,1111122 
COMPS,ioos:station:USF.COMPS:ARP:1,2010-09-01T17:30:00Z,28.4330,-82.6670,30.0,1111122 
COMPS,ioos:station:USF.COMPS:ARP:1,2010-09-01T17:36:00Z,28.4330,-82.6670,29.89,1111122 
COMPS,ioos:station:USF.COMPS:ARP:1,2010-09-01T17:42:00Z,28.4330,-82.6670,30.05,1111122 
COMPS,ioos:station:USF.COMPS:ARP:1,2010-09-01T17:48:00Z,28.4330,-82.6670,30.21,1111122 
COMPS,ioos:station:USF.COMPS:ARP:1,2010-09-01T17:54:00Z,28.4330,-82.6670,30.53,1111122 
COMPS,ioos:station:USF.COMPS:ARP:1,2010-09-01T18:00:00Z,28.4330,-82.6670,30.5,1111122 
COMPS,ioos:station:USF.COMPS:ARP:1,2010-09-01T18:06:00Z,28.4330,-82.6670,30.81,1111122 
COMPS,ioos:station:USF.COMPS:ARP:1,2010-09-01T18:12:00Z,28.4330,-82.6670,30.43,1111122 
COMPS,ioos:station:USF.COMPS:ARP:1,2010-09-01T18:18:00Z,28.4330,-82.6670,30.59,1111122 
COMPS,ioos:station:USF.COMPS:ARP:1,2010-09-01T18:24:00Z,28.4330,-82.6670,30.7,1111122 
COMPS,ioos:station:USF.COMPS:ARP:1,2010-09-01T18:30:00Z,28.4330,-82.6670,30.78,1111122 
COMPS,ioos:station:USF.COMPS:ARP:1,2010-09-01T18:36:00Z,28.4330,-82.6670,31.11,1111122 
COMPS,ioos:station:USF.COMPS:ARP:1,2010-09-01T18:42:00Z,28.4330,-82.6670,30.99,1111122 
COMPS,ioos:station:USF.COMPS:ARP:1,2010-09-01T18:48:00Z,28.4330,-82.6670,30.98,1111122 
COMPS,ioos:station:USF.COMPS:ARP:1,2010-09-01T18:54:00Z,28.4330,-82.6670,31.09,1111122 
COMPS,ioos:station:USF.COMPS:ARP:1,2010-09-01T19:00:00Z,28.4330,-82.6670,31.1,1111122 
COMPS,ioos:station:USF.COMPS:ARP:1,2010-09-01T19:06:00Z,28.4330,-82.6670,31.16,1111122 
COMPS,ioos:station:USF.COMPS:ARP:1,2010-09-01T19:12:00Z,28.4330,-82.6670,31.21,1111122 
COMPS,ioos:station:USF.COMPS:ARP:1,2010-09-01T19:18:00Z,28.4330,-82.6670,31.43,1111122 
COMPS,ioos:station:USF.COMPS:ARP:1,2010-09-01T19:24:00Z,28.4330,-82.6670,31.1,1111122 
COMPS,ioos:station:USF.COMPS:ARP:1,2010-09-01T19:30:00Z,28.4330,-82.6670,31.44,1111122 
COMPS,ioos:station:USF.COMPS:ARP:1,2010-09-01T19:36:00Z,28.4330,-82.6670,31.34,1111122 
COMPS,ioos:station:USF.COMPS:ARP:1,2010-09-01T19:42:00Z,28.4330,-82.6670,31.45,1111122 
COMPS,ioos:station:USF.COMPS:ARP:1,2010-09-01T19:48:00Z,28.4330,-82.6670,31.71,1111122 
COMPS,ioos:station:USF.COMPS:ARP:1,2010-09-01T19:54:00Z,28.4330,-82.6670,31.4,1111122 
COMPS,ioos:station:USF.COMPS:ARP:1,2010-09-01T20:00:00Z,28.4330,-82.6670,31.62,1111122 
COMPS,ioos:station:USF.COMPS:ARP:1,2010-09-01T20:06:00Z,28.4330,-82.6670,31.58,1111122 
COMPS,ioos:station:USF.COMPS:ARP:1,2010-09-01T20:12:00Z,28.4330,-82.6670,31.42,1111122 
COMPS,ioos:station:USF.COMPS:ARP:1,2010-09-01T20:18:00Z,28.4330,-82.6670,31.62,1111122 
COMPS,ioos:station:USF.COMPS:ARP:1,2010-09-01T20:24:00Z,28.4330,-82.6670,31.87,1111122 
COMPS,ioos:station:USF.COMPS:ARP:1,2010-09-01T20:30:00Z,28.4330,-82.6670,31.56,1111122 
COMPS,ioos:station:USF.COMPS:ARP:1,2010-09-01T20:36:00Z,28.4330,-82.6670,31.55,1111122 
COMPS,ioos:station:USF.COMPS:ARP:1,2010-09-01T20:42:00Z,28.4330,-82.6670,31.59,1111122 
COMPS,ioos:station:USF.COMPS:ARP:1,2010-09-01T20:48:00Z,28.4330,-82.6670,31.5,1111122 
COMPS,ioos:station:USF.COMPS:ARP:1,2010-09-01T20:54:00Z,28.4330,-82.6670,31.87,1111122 
COMPS,ioos:station:USF.COMPS:ARP:1,2010-09-01T21:00:00Z,28.4330,-82.6670,31.9,1111122 
COMPS,ioos:station:USF.COMPS:ARP:1,2010-09-01T21:06:00Z,28.4330,-82.6670,31.52,1111122 
COMPS,ioos:station:USF.COMPS:ARP:1,2010-09-01T21:12:00Z,28.4330,-82.6670,31.52,1111122 
COMPS,ioos:station:USF.COMPS:ARP:1,2010-09-01T21:18:00Z,28.4330,-82.6670,31.52,1111122 
COMPS,ioos:station:USF.COMPS:ARP:1,2010-09-01T21:24:00Z,28.4330,-82.6670,31.55,1111122 
COMPS,ioos:station:USF.COMPS:ARP:1,2010-09-01T21:30:00Z,28.4330,-82.6670,31.39,1111122 
COMPS,ioos:station:USF.COMPS:ARP:1,2010-09-01T21:36:00Z,28.4330,-82.6670,31.42,1111122 
COMPS,ioos:station:USF.COMPS:ARP:1,2010-09-01T21:42:00Z,28.4330,-82.6670,31.49,1111122 
COMPS,ioos:station:USF.COMPS:ARP:1,2010-09-01T21:48:00Z,28.4330,-82.6670,31.4,1111122 
COMPS,ioos:station:USF.COMPS:ARP:1,2010-09-01T21:54:00Z,28.4330,-82.6670,31.41,1111122 
COMPS,ioos:station:USF.COMPS:ARP:1,2010-09-01T22:00:00Z,28.4330,-82.6670,31.4,1111122 
COMPS,ioos:station:USF.COMPS:ARP:1,2010-09-01T22:06:00Z,28.4330,-82.6670,31.33,1111122 
COMPS,ioos:station:USF.COMPS:ARP:1,2010-09-01T22:12:00Z,28.4330,-82.6670,31.13,1111122 
COMPS,ioos:station:USF.COMPS:ARP:1,2010-09-01T22:18:00Z,28.4330,-82.6670,31.04,1111122 
COMPS,ioos:station:USF.COMPS:ARP:1,2010-09-01T22:24:00Z,28.4330,-82.6670,30.92,1111122 
COMPS,ioos:station:USF.COMPS:ARP:1,2010-09-01T22:30:00Z,28.4330,-82.6670,30.8,1111122 
COMPS,ioos:station:USF.COMPS:ARP:1,2010-09-01T22:36:00Z,28.4330,-82.6670,30.71,1111122 
COMPS,ioos:station:USF.COMPS:ARP:1,2010-09-01T22:42:00Z,28.4330,-82.6670,30.47,1111122 
COMPS,ioos:station:USF.COMPS:ARP:1,2010-09-01T22:48:00Z,28.4330,-82.6670,30.37,1111122 
COMPS,ioos:station:USF.COMPS:ARP:1,2010-09-01T22:54:00Z,28.4330,-82.6670,30.28,1111122 
COMPS,ioos:station:USF.COMPS:ARP:1,2010-09-01T23:00:00Z,28.4330,-82.6670,30.3,1111122 
COMPS,ioos:station:USF.COMPS:ARP:1,2010-09-01T23:06:00Z,28.4330,-82.6670,29.93,1111122 
COMPS,ioos:station:USF.COMPS:ARP:1,2010-09-01T23:12:00Z,28.4330,-82.6670,29.84,1111122 
COMPS,ioos:station:USF.COMPS:ARP:1,2010-09-01T23:18:00Z,28.4330,-82.6670,29.72,1111122 
COMPS,ioos:station:USF.COMPS:ARP:1,2010-09-01T23:24:00Z,28.4330,-82.6670,29.58,1111122 
COMPS,ioos:station:USF.COMPS:ARP:1,2010-09-01T23:30:00Z,28.4330,-82.6670,29.4,1111122 
COMPS,ioos:station:USF.COMPS:ARP:1,2010-09-01T23:36:00Z,28.4330,-82.6670,29.16,1111122 
COMPS,ioos:station:USF.COMPS:ARP:1,2010-09-01T23:42:00Z,28.4330,-82.6670,28.83,1111122 
COMPS,ioos:station:USF.COMPS:ARP:1,2010-09-01T23:48:00Z,28.4330,-82.6670,28.53,1111122 
COMPS,ioos:station:USF.COMPS:ARP:1,2010-09-01T23:54:00Z,28.4330,-82.6670,28.3,1111122 
COMPS,ioos:station:USF.COMPS:ARP:1,2010-09-02T00:00:00Z,28.4330,-82.6670,28.3,1111122 
COMPS,ioos:station:USF.COMPS:ARP:1,2010-09-02T00:06:00Z,28.4330,-82.6670,27.92,1111122 
COMPS,ioos:station:USF.COMPS:ARP:1,2010-09-02T00:12:00Z,28.4330,-82.6670,27.84,1111122 
COMPS,ioos:station:USF.COMPS:ARP:1,2010-09-02T00:18:00Z,28.4330,-82.6670,27.67,1111122 
COMPS,ioos:station:USF.COMPS:ARP:1,2010-09-02T00:24:00Z,28.4330,-82.6670,27.45,1111122 
COMPS,ioos:station:USF.COMPS:ARP:1,2010-09-02T00:30:00Z,28.4330,-82.6670,27.22,1111122 
COMPS,ioos:station:USF.COMPS:ARP:1,2010-09-02T00:36:00Z,28.4330,-82.6670,26.95,1111122 
COMPS,ioos:station:USF.COMPS:ARP:1,2010-09-02T00:42:00Z,28.4330,-82.6670,26.81,1111122 
COMPS,ioos:station:USF.COMPS:ARP:1,2010-09-02T00:48:00Z,28.4330,-82.6670,26.58,1111122 
COMPS,ioos:station:USF.COMPS:ARP:1,2010-09-02T00:54:00Z,28.4330,-82.6670,26.49,1111122 
COMPS,ioos:station:USF.COMPS:ARP:1,2010-09-02T01:00:00Z,28.4330,-82.6670,26.5,1111122 
COMPS,ioos:station:USF.COMPS:ARP:1,2010-09-02T01:06:00Z,28.4330,-82.6670,25.81,1111122 
COMPS,ioos:station:USF.COMPS:ARP:1,2010-09-02T01:12:00Z,28.4330,-82.6670,25.64,1111122 
COMPS,ioos:station:USF.COMPS:ARP:1,2010-09-02T01:18:00Z,28.4330,-82.6670,25.54,1111122 
COMPS,ioos:station:USF.COMPS:ARP:1,2010-09-02T01:24:00Z,28.4330,-82.6670,25.43,1111122 
COMPS,ioos:station:USF.COMPS:ARP:1,2010-09-02T01:30:00Z,28.4330,-82.6670,25.3,1111122 
COMPS,ioos:station:USF.COMPS:ARP:1,2010-09-02T01:36:00Z,28.4330,-82.6670,25.41,1111122 
COMPS,ioos:station:USF.COMPS:ARP:1,2010-09-02T01:42:00Z,28.4330,-82.6670,25.31,1111122 
COMPS,ioos:station:USF.COMPS:ARP:1,2010-09-02T01:48:00Z,28.4330,-82.6670,25.22,1111122 
COMPS,ioos:station:USF.COMPS:ARP:1,2010-09-02T01:54:00Z,28.4330,-82.6670,25.04,1111122 
COMPS,ioos:station:USF.COMPS:ARP:1,2010-09-02T02:00:00Z,28.4330,-82.6670,25.0,1111122 
COMPS,ioos:station:USF.COMPS:ARP:1,2010-09-02T02:06:00Z,28.4330,-82.6670,24.58,1111122 
COMPS,ioos:station:USF.COMPS:ARP:1,2010-09-02T02:12:00Z,28.4330,-82.6670,24.48,1111122 
COMPS,ioos:station:USF.COMPS:ARP:1,2010-09-02T02:18:00Z,28.4330,-82.6670,24.38,1111122 
COMPS,ioos:station:USF.COMPS:ARP:1,2010-09-02T02:24:00Z,28.4330,-82.6670,24.38,1111122 
COMPS,ioos:station:USF.COMPS:ARP:1,2010-09-02T02:30:00Z,28.4330,-82.6670,24.24,1111122 
COMPS,ioos:station:USF.COMPS:ARP:1,2010-09-02T02:36:00Z,28.4330,-82.6670,24.21,1111122 
COMPS,ioos:station:USF.COMPS:ARP:1,2010-09-02T02:42:00Z,28.4330,-82.6670,24.13,1111122 
COMPS,ioos:station:USF.COMPS:ARP:1,2010-09-02T02:48:00Z,28.4330,-82.6670,24.07,1111122 
COMPS,ioos:station:USF.COMPS:ARP:1,2010-09-02T02:54:00Z,28.4330,-82.6670,24.16,1111122 
COMPS,ioos:station:USF.COMPS:ARP:1,2010-09-02T03:00:00Z,28.4330,-82.6670,24.2,1111122 
COMPS,ioos:station:USF.COMPS:ARP:1,2010-09-02T03:06:00Z,28.4330,-82.6670,24.21,1111122 
COMPS,ioos:station:USF.COMPS:ARP:1,2010-09-02T03:12:00Z,28.4330,-82.6670,24.21,1111122 
COMPS,ioos:station:USF.COMPS:ARP:1,2010-09-02T03:18:00Z,28.4330,-82.6670,24.22,1111122 
COMPS,ioos:station:USF.COMPS:ARP:1,2010-09-02T03:24:00Z,28.4330,-82.6670,24.3,1111122 
COMPS,ioos:station:USF.COMPS:ARP:1,2010-09-02T03:30:00Z,28.4330,-82.6670,24.23,1111122 
COMPS,ioos:station:USF.COMPS:ARP:1,2010-09-02T03:36:00Z,28.4330,-82.6670,24.15,1111122 
COMPS,ioos:station:USF.COMPS:ARP:1,2010-09-02T03:42:00Z,28.4330,-82.6670,23.96,1111122 
COMPS,ioos:station:USF.COMPS:ARP:1,2010-09-02T03:48:00Z,28.4330,-82.6670,23.94,1111122 
COMPS,ioos:station:USF.COMPS:ARP:1,2010-09-02T03:54:00Z,28.4330,-82.6670,23.91,1111122 
COMPS,ioos:station:USF.COMPS:ARP:1,2010-09-02T04:00:00Z,28.4330,-82.6670,23.68,1111122 
COMPS,ioos:station:USF.COMPS:ARP:1,2010-09-02T04:06:00Z,28.4330,-82.6670,23.63,1111122 
COMPS,ioos:station:USF.COMPS:ARP:1,2010-09-02T04:12:00Z,28.4330,-82.6670,23.47,1111122 
COMPS,ioos:station:USF.COMPS:ARP:1,2010-09-02T04:18:00Z,28.4330,-82.6670,23.39,1111122 
COMPS,ioos:station:USF.COMPS:ARP:1,2010-09-02T04:24:00Z,28.4330,-82.6670,23.39,1111122 
COMPS,ioos:station:USF.COMPS:ARP:1,2010-09-02T04:30:00Z,28.4330,-82.6670,23.39,1111122 
COMPS,ioos:station:USF.COMPS:ARP:1,2010-09-02T04:36:00Z,28.4330,-82.6670,23.39,1111122 
COMPS,ioos:station:USF.COMPS:ARP:1,2010-09-02T04:42:00Z,28.4330,-82.6670,23.37,1111122 
COMPS,ioos:station:USF.COMPS:ARP:1,2010-09-02T04:48:00Z,28.4330,-82.6670,23.31,1111122 
COMPS,ioos:station:USF.COMPS:ARP:1,2010-09-02T04:54:00Z,28.4330,-82.6670,23.21,1111122 
COMPS,ioos:station:USF.COMPS:ARP:1,2010-09-02T05:00:00Z,28.4330,-82.6670,23.2,1111122 
COMPS,ioos:station:USF.COMPS:ARP:1,2010-09-02T05:06:00Z,28.4330,-82.6670,23.02,1111122 
COMPS,ioos:station:USF.COMPS:ARP:1,2010-09-02T05:12:00Z,28.4330,-82.6670,23.07,1111122 
COMPS,ioos:station:USF.COMPS:ARP:1,2010-09-02T05:18:00Z,28.4330,-82.6670,23.1,1111122 
COMPS,ioos:station:USF.COMPS:ARP:1,2010-09-02T05:24:00Z,28.4330,-82.6670,23.01,1111122 
COMPS,ioos:station:USF.COMPS:ARP:1,2010-09-02T05:30:00Z,28.4330,-82.6670,22.99,1111122 
COMPS,ioos:station:USF.COMPS:ARP:1,2010-09-02T05:36:00Z,28.4330,-82.6670,22.98,1111122 
COMPS,ioos:station:USF.COMPS:ARP:1,2010-09-02T05:42:00Z,28.4330,-82.6670,22.76,1111122 
COMPS,ioos:station:USF.COMPS:ARP:1,2010-09-02T05:48:00Z,28.4330,-82.6670,22.71,1111122 
COMPS,ioos:station:USF.COMPS:ARP:1,2010-09-02T05:54:00Z,28.4330,-82.6670,22.77,1111122 
COMPS,ioos:station:USF.COMPS:ARP:1,2010-09-02T06:00:00Z,28.4330,-82.6670,22.69,1111122 
COMPS,ioos:station:USF.COMPS:ARP:1,2010-09-02T06:06:00Z,28.4330,-82.6670,22.7,1111122 
COMPS,ioos:station:USF.COMPS:ARP:1,2010-09-02T06:12:00Z,28.4330,-82.6670,22.57,1111122 
COMPS,ioos:station:USF.COMPS:ARP:1,2010-09-02T06:18:00Z,28.4330,-82.6670,22.6,1111122 
COMPS,ioos:station:USF.COMPS:ARP:1,2010-09-02T06:24:00Z,28.4330,-82.6670,22.85,1111122 
COMPS,ioos:station:USF.COMPS:ARP:1,2010-09-02T06:30:00Z,28.4330,-82.6670,22.82,1111122 
COMPS,ioos:station:USF.COMPS:ARP:1,2010-09-02T06:36:00Z,28.4330,-82.6670,22.71,1111122 
COMPS,ioos:station:USF.COMPS:ARP:1,2010-09-02T06:42:00Z,28.4330,-82.6670,22.64,1111122 
COMPS,ioos:station:USF.COMPS:ARP:1,2010-09-02T06:48:00Z,28.4330,-82.6670,22.68,1111122 
COMPS,ioos:station:USF.COMPS:ARP:1,2010-09-02T06:54:00Z,28.4330,-82.6670,22.82,1111122 
COMPS,ioos:station:USF.COMPS:ARP:1,2010-09-02T07:00:00Z,28.4330,-82.6670,22.8,1111122 
COMPS,ioos:station:USF.COMPS:ARP:1,2010-09-02T07:06:00Z,28.4330,-82.6670,22.83,1111122 
COMPS,ioos:station:USF.COMPS:ARP:1,2010-09-02T07:12:00Z,28.4330,-82.6670,22.71,1111122 
COMPS,ioos:station:USF.COMPS:ARP:1,2010-09-02T07:18:00Z,28.4330,-82.6670,22.71,1111122 
COMPS,ioos:station:USF.COMPS:ARP:1,2010-09-02T07:24:00Z,28.4330,-82.6670,22.65,1111122 
COMPS,ioos:station:USF.COMPS:ARP:1,2010-09-02T07:30:00Z,28.4330,-82.6670,22.59,1111122 
COMPS,ioos:station:USF.COMPS:ARP:1,2010-09-02T07:36:00Z,28.4330,-82.6670,22.68,1111122 
COMPS,ioos:station:USF.COMPS:ARP:1,2010-09-02T07:42:00Z,28.4330,-82.6670,22.85,1111122 
COMPS,ioos:station:USF.COMPS:ARP:1,2010-09-02T07:48:00Z,28.4330,-82.6670,22.95,1111122 
COMPS,ioos:station:USF.COMPS:ARP:1,2010-09-02T07:54:00Z,28.4330,-82.6670,23.08,1111122 
COMPS,ioos:station:USF.COMPS:ARP:1,2010-09-02T08:00:00Z,28.4330,-82.6670,23.1,1111122 
COMPS,ioos:station:USF.COMPS:ARP:1,2010-09-02T08:06:00Z,28.4330,-82.6670,23.03,1111122 
COMPS,ioos:station:USF.COMPS:ARP:1,2010-09-02T08:12:00Z,28.4330,-82.6670,22.98,1111122 
COMPS,ioos:station:USF.COMPS:ARP:1,2010-09-02T08:18:00Z,28.4330,-82.6670,22.94,1111122 
COMPS,ioos:station:USF.COMPS:ARP:1,2010-09-02T08:24:00Z,28.4330,-82.6670,22.79,1111122 
COMPS,ioos:station:USF.COMPS:ARP:1,2010-09-02T08:30:00Z,28.4330,-82.6670,22.71,1111122 
COMPS,ioos:station:USF.COMPS:ARP:1,2010-09-02T08:36:00Z,28.4330,-82.6670,22.71,1111122 
COMPS,ioos:station:USF.COMPS:ARP:1,2010-09-02T08:42:00Z,28.4330,-82.6670,22.79,1111122 
COMPS,ioos:station:USF.COMPS:ARP:1,2010-09-02T08:48:00Z,28.4330,-82.6670,22.82,1111122 
COMPS,ioos:station:USF.COMPS:ARP:1,2010-09-02T08:54:00Z,28.4330,-82.6670,22.83,1111122 
COMPS,ioos:station:USF.COMPS:ARP:1,2010-09-02T09:00:00Z,28.4330,-82.6670,22.8,1111122 
COMPS,ioos:station:USF.COMPS:ARP:1,2010-09-02T09:06:00Z,28.4330,-82.6670,22.72,1111122 
COMPS,ioos:station:USF.COMPS:ARP:1,2010-09-02T09:12:00Z,28.4330,-82.6670,22.71,1111122 
COMPS,ioos:station:USF.COMPS:ARP:1,2010-09-02T09:18:00Z,28.4330,-82.6670,22.71,1111122 
COMPS,ioos:station:USF.COMPS:ARP:1,2010-09-02T09:24:00Z,28.4330,-82.6670,22.71,1111122 
COMPS,ioos:station:USF.COMPS:ARP:1,2010-09-02T09:30:00Z,28.4330,-82.6670,22.69,1111122 
COMPS,ioos:station:USF.COMPS:ARP:1,2010-09-02T09:36:00Z,28.4330,-82.6670,22.7,1111122 
COMPS,ioos:station:USF.COMPS:ARP:1,2010-09-02T09:42:00Z,28.4330,-82.6670,22.64,1111122 
COMPS,ioos:station:USF.COMPS:ARP:1,2010-09-02T09:48:00Z,28.4330,-82.6670,22.61,1111122 
COMPS,ioos:station:USF.COMPS:ARP:1,2010-09-02T09:54:00Z,28.4330,-82.6670,22.63,1111122 
COMPS,ioos:station:USF.COMPS:ARP:1,2010-09-02T10:00:00Z,28.4330,-82.6670,22.6,1111122 
COMPS,ioos:station:USF.COMPS:ARP:1,2010-09-02T10:06:00Z,28.4330,-82.6670,22.46,1111122 
COMPS,ioos:station:USF.COMPS:ARP:1,2010-09-02T10:12:00Z,28.4330,-82.6670,22.37,1111122 
COMPS,ioos:station:USF.COMPS:ARP:1,2010-09-02T10:18:00Z,28.4330,-82.6670,22.23,1111122 
COMPS,ioos:station:USF.COMPS:ARP:1,2010-09-02T10:24:00Z,28.4330,-82.6670,22.08,1111122 
COMPS,ioos:station:USF.COMPS:ARP:1,2010-09-02T10:30:00Z,28.4330,-82.6670,22.03,1111122 
COMPS,ioos:station:USF.COMPS:ARP:1,2010-09-02T10:36:00Z,28.4330,-82.6670,21.99,1111122 
COMPS,ioos:station:USF.COMPS:ARP:1,2010-09-02T10:42:00Z,28.4330,-82.6670,21.87,1111122 
COMPS,ioos:station:USF.COMPS:ARP:1,2010-09-02T10:48:00Z,28.4330,-82.6670,21.9,1111122 
COMPS,ioos:station:USF.COMPS:ARP:1,2010-09-02T10:54:00Z,28.4330,-82.6670,21.92,1111122 
COMPS,ioos:station:USF.COMPS:ARP:1,2010-09-02T11:00:00Z,28.4330,-82.6670,21.9,1111122 
COMPS,ioos:station:USF.COMPS:ARP:1,2010-09-02T11:06:00Z,28.4330,-82.6670,22.03,1111122 
COMPS,ioos:station:USF.COMPS:ARP:1,2010-09-02T11:12:00Z,28.4330,-82.6670,22.03,1111122 
COMPS,ioos:station:USF.COMPS:ARP:1,2010-09-02T11:18:00Z,28.4330,-82.6670,21.92,1111122 
COMPS,ioos:station:USF.COMPS:ARP:1,2010-09-02T11:24:00Z,28.4330,-82.6670,21.94,1111122 
COMPS,ioos:station:USF.COMPS:ARP:1,2010-09-02T11:30:00Z,28.4330,-82.6670,22.03,1111122 
COMPS,ioos:station:USF.COMPS:ARP:1,2010-09-02T11:36:00Z,28.4330,-82.6670,22.05,1111122 
COMPS,ioos:station:USF.COMPS:ARP:1,2010-09-02T11:42:00Z,28.4330,-82.6670,22.21,1111122 
COMPS,ioos:station:USF.COMPS:ARP:1,2010-09-02T11:48:00Z,28.4330,-82.6670,22.51,1111122 
COMPS,ioos:station:USF.COMPS:ARP:1,2010-09-02T11:54:00Z,28.4330,-82.6670,22.77,1111122 
COMPS,ioos:station:USF.COMPS:ARP:1,2010-09-02T12:00:00Z,28.4330,-82.6670,22.76,1111122 
COMPS,ioos:station:USF.COMPS:ARP:1,2010-09-02T12:06:00Z,28.4330,-82.6670,22.98,1111122 
COMPS,ioos:station:USF.COMPS:ARP:1,2010-09-02T12:12:00Z,28.4330,-82.6670,23.16,1111122 
COMPS,ioos:station:USF.COMPS:ARP:1,2010-09-02T12:18:00Z,28.4330,-82.6670,23.37,1111122 
COMPS,ioos:station:USF.COMPS:ARP:1,2010-09-02T12:24:00Z,28.4330,-82.6670,23.69,1111122 
COMPS,ioos:station:USF.COMPS:ARP:1,2010-09-02T12:30:00Z,28.4330,-82.6670,23.96,1111122 
COMPS,ioos:station:USF.COMPS:ARP:1,2010-09-02T12:36:00Z,28.4330,-82.6670,24.28,1111122 
COMPS,ioos:station:USF.COMPS:ARP:1,2010-09-02T12:42:00Z,28.4330,-82.6670,24.51,1111122 
COMPS,ioos:station:USF.COMPS:ARP:1,2010-09-02T12:48:00Z,28.4330,-82.6670,24.74,1111122 
COMPS,ioos:station:USF.COMPS:ARP:1,2010-09-02T12:54:00Z,28.4330,-82.6670,25.07,1111122 
COMPS,ioos:station:USF.COMPS:ARP:1,2010-09-02T13:00:00Z,28.4330,-82.6670,25.1,1111122 
COMPS,ioos:station:USF.COMPS:ARP:1,2010-09-02T13:06:00Z,28.4330,-82.6670,25.38,1111122 
COMPS,ioos:station:USF.COMPS:ARP:1,2010-09-02T13:12:00Z,28.4330,-82.6670,25.8,1111122 
COMPS,ioos:station:USF.COMPS:ARP:1,2010-09-02T13:18:00Z,28.4330,-82.6670,25.96,1111122 
COMPS,ioos:station:USF.COMPS:ARP:1,2010-09-02T13:24:00Z,28.4330,-82.6670,26.19,1111122 
COMPS,ioos:station:USF.COMPS:ARP:1,2010-09-02T13:30:00Z,28.4330,-82.6670,26.24,1111122 
COMPS,ioos:station:USF.COMPS:ARP:1,2010-09-02T13:36:00Z,28.4330,-82.6670,26.48,1111122 
COMPS,ioos:station:USF.COMPS:ARP:1,2010-09-02T13:42:00Z,28.4330,-82.6670,26.87,1111122 
COMPS,ioos:station:USF.COMPS:ARP:1,2010-09-02T13:48:00Z,28.4330,-82.6670,26.93,1111122 
COMPS,ioos:station:USF.COMPS:ARP:1,2010-09-02T13:54:00Z,28.4330,-82.6670,26.77,1111122 
COMPS,ioos:station:USF.COMPS:ARP:1,2010-09-02T14:00:00Z,28.4330,-82.6670,26.92,1111122 